Location: Newark
(7.1028°S, 35.3258°W)
Time: 10:34:46
(UTC+00:00)

Hubble Space Telescope - Pass Details

Date: 26 January 2020
Orbit: 536 x 540 km, 28.5° (Epoch: 19 February)

Event Time Altitude Azimuth Distance (km) Brightness Sun altitude
Rises 21:20:30 0° 253° (WSW) 2,681 6.8 -8.7°
Reaches altitude 10° 21:24:43 10° 212° (SSW) 1,791 4.3 -9.6°
Maximum altitude 21:25:33 11° 200° (SSW) 1,760 4.0 -9.8°
Drops below altitude 10° 21:26:23 10° 188° (S) 1,792 3.8 -10.0°
Sets 21:30:36 0° 147° (SSE) 2,684 4.2 -11.0°
